Regional Weather Roundup
Issued by NWS

Home | Current Version | Previous Version | Text Only | Print | Product List | Glossary Off
Versions: 1 2 3 4 5 6 7 8 9 10 11 12 13 14 15 16 17 18 19 20 21 22 23 24 25 26 27 28 29 30 31 32 33 34 35 36 37 38 39 40 41 42 43 44 45 46 47 48 49 50

318
ASUS43 KIND 120409
RWRIN

WEATHER ROUNDUP FOR INDIANA
NATIONAL WEATHER SERVICE INDIANAPOLIS IN
1100 PM EST THU FEB 11 2016

NOTE: "FAIR" INDICATES FEW OR NO CLOUDS BELOW 12,000 FEET WITH NO
SIGNIFICANT WEATHER AND/OR OBSTRUCTIONS TO VISIBILITY.

* - STATION DOES NOT REPORT WEATHER SUCH AS PRECIPITATION OR FOG.

+ - STATION NOT QUALITY CONTROLLED BY THE NATIONAL WEATHER SERVICE.
    USE DATA WITH CAUTION...ESPECIALLY DEWPOINT AND RELATIVE
    HUMIDITY OBSERVATIONS.

INZ001>003-010>013-019-020-120500-
NORTHWEST INDIANA

CITY           SKY/WX    TMP DP  RH WIND       PRES   REMARKS
GARY /AIRPORT/ CLEAR     14   6  70 CALM      30.29S
KNOX *+        CLOUDY    10   7  85 CALM      30.28S
LA PORTE +     CLOUDY     2  -1  87 CALM      30.28S
MICHIGAN CITY+ CLOUDY     3   1  92 CALM      30.28S
MONTICELLO +   PTCLDY    18   5  57 CALM      30.28S
RENSSELAER +   CLEAR     19   9  63 CALM      30.29R
VALPARAISO     CLEAR     11   6  81 CALM      30.27S

$$

LMZ046-743>745-120500-
SOUTHERN LAKE MICHIGAN

STATION/POSITION TIME  TEMP    WIND        PRES    WAVE
                       AIR SEA DIR/SP/G            HT
                 (UTC) (F)     (DEG/KT/KT) (MB)    (FT)
BURNS HARBOR     0300   18     200/  7/  8 1025.7S
MICHIGAN CITY    0300   17     150/  8/ 10   N/A

$$

INZ004-005-014>016-021>024-120500-
NORTH CENTRAL INDIANA

CITY           SKY/WX    TMP DP  RH WIND       PRES   REMARKS
GOSHEN         CLOUDY     5   1  83 CALM      30.26F
LOGANSPORT +   CLOUDY    16   7  67 CALM      30.28F
PERU/GRISSOM   CLOUDY    14   9  81 SW5       30.25F WCI   6
ROCHESTER +    CLOUDY    12   5  73 CALM      30.28S
SOUTH BEND     CLOUDY     3  -2  79 CALM      30.27S
WARSAW +       CLOUDY    10   5  79 CALM      30.27S

$$

INZ006>009-017-018-025>027-120500-
NORTHEAST INDIANA

CITY           SKY/WX    TMP DP  RH WIND       PRES   REMARKS
ANGOLA *+      CLEAR      9   5  85 CALM      30.23F
AUBURN +       CLEAR     16   7  67 CALM      30.27F
FORT WAYNE     PTCLDY    14   7  73 SW5       30.28S WCI   6
HUNTINGTON +   CLOUDY    10   6  81 CALM      30.27F

$$

INZ028-029-035-036-043>045-051>053-120500-
WEST CENTRAL INDIANA

CITY           SKY/WX    TMP DP  RH WIND       PRES   REMARKS
GREENCASTLE +  PTCLDY    21   9  58 CALM      30.28F
LAFAYETTE      CLOUDY    19  10  68 CALM      30.29F
TERRE HAUTE    CLOUDY    23  12  62 N3        30.30S

$$

INZ030>032-037>040-046>048-054>057-064-065-120500-
CENTRAL INDIANA

CITY           SKY/WX    TMP DP  RH WIND       PRES   REMARKS
FISHERS *+     MOCLDY    19  12  73 CALM      30.27
FRANKFORT +    PTCLDY    20   6  54 CALM      30.28F
GREENWOOD *+   CLOUDY    21  12  68 CALM      30.28F
INDIANAPOLIS   CLOUDY    20   9  62 S5        30.27S WCI  13
-EAGLE CREEK   PTCLDY    21  10  62 CALM      30.27F
KOKOMO *+      CLOUDY    16   9  73 CALM      30.27F
MARION +       CLOUDY    13   4  68 CALM      30.28S
MT COMFORT *+  CLOUDY    19  10  68 S6        30.28S WCI  11
SHELBYVILLE    MOCLDY    20  11  68 CALM      30.28F
ZIONSVILLE +   CLOUDY    20  10  65 CALM      30.27F

$$

INZ033-034-041-042-049-050-058-059-120500-
EAST CENTRAL INDIANA

CITY           SKY/WX    TMP DP  RH WIND       PRES   REMARKS
MUNCIE         PTCLDY    18   8  65 S3        30.27F

$$

INZ060-061-067>069-081>083-085>088-120500-
SOUTHWEST INDIANA

CITY           SKY/WX    TMP DP  RH WIND       PRES   REMARKS
EVANSVILLE     PTCLDY    28  14  55 NE5       30.29F WCI  23
HUNTINGBURG *+ MOCLDY    27  10  50 NE5       30.29F WCI  21
WASHINGTON +   CLOUDY    25  11  57 NE3       30.29F

$$

INZ062-063-066-070>080-084-089>092-120500-
SOUTH CENTRAL AND SOUTHEAST INDIANA

CITY           SKY/WX    TMP DP  RH WIND       PRES   REMARKS
BEDFORD +      CLOUDY    23  14  68 CALM      30.28F
BLOOMINGTON    MOCLDY    23  10  57 E5        30.27F WCI  17
MADISON *+     MOCLDY    23  10  58 NE3       30.30S
NORTH VERNON + MOCLDY    21  10  63 CALM      30.30F
SEYMOUR +      MOCLDY    25  12  58 CALM      30.30F

$$





USA.gov is the U.S. government's official web portal to all federal, state and local government web resources and services.